Location: Chac�n
(10.5789°N, 66.9317°W)
Time: 20:53:37
(UTC+00:00)

Daily predictions for brighter satellites

Satellite Brightness Start Highest point End
(mag) Time Altitude Azimuth Time Altitude Azimuth Time Altitude Azimuth
ARIANE 5 R/B 4.5 22:21:05 10° SW 22:26:37 39° SSE 23:06:33 10° E
ARIANE 5 R/B 4.5 22:21:04 10° SW 22:26:37 39° SSE 23:06:34 10° E
ARIANE 5 R/B 4.5 22:21:04 10° SW 22:26:38 39° SSE 23:06:34 10° E
Cosmos 1464 Rocket 4.2 22:51:06 10° SSE 22:57:13 52° E 23:03:18 10° NNE
Cosmos 1420 Rocket 4.0 22:54:53 10° NNW 23:00:03 89° WSW 23:05:14 10° SSE
Cosmos 1606 Rocket 4.4 22:59:15 10° SSE 23:03:01 28° E 23:06:47 10° NNE
Cosmos 220 Rocket 4.4 23:04:34 10° N 23:08:39 40° ENE 23:12:39 10° SSE
CZ-2D R/B 3.7 23:05:49 10° S 23:09:39 66° W 23:13:29 10° NNW
FALCON 9 DEB 3.8 23:07:42 10° S 23:10:18 26° ESE 23:12:53 10° ENE
SME Rocket 4.1 23:07:29 10° NNE 23:12:34 66° ESE 23:20:23 10° S
Cosmos 1726 Rocket 4.4 23:09:38 10° SSE 23:13:26 29° E 23:17:13 10° NNE
USA 32 4.0 23:08:27 10° S 23:13:40 86° E 23:18:53 10° N
Cosmos 1626 Rocket 3.7 23:09:42 10° N 23:14:01 52° E 23:18:21 10° SSE
CZ-2C R/B 3.9 23:10:27 10° S 23:15:11 50° W 23:19:46 10° NNW
SL-4 R/B 2.5 23:14:47 10° S 23:18:21 35° SE 23:22:11 10° ENE
Cosmos 1452 Rocket 3.5 23:13:11 10° N 23:18:25 67° ENE 23:23:38 10° SSE
IRS-1C Rocket 4.2 23:13:38 10° SSE 23:18:46 54° ENE 23:23:53 10° N
Cosmos 2228 3.0 23:14:36 10° S 23:18:55 61° E 23:23:12 10° NNE
SJ-11-01 4.5 23:15:01 10° SSE 23:19:35 50° ENE 23:24:10 10° N
Cosmos 1300 3.5 23:17:04 10° SSW 23:20:47 54° W 23:24:28 10° N
SWIFT 4.4 23:17:40 10° NW 23:20:52 21° N 23:24:05 10° NE
Cosmos 1441 Rocket 4.5 23:19:04 10° NNE 23:22:14 23° E 23:24:14 16° ESE
RESURS DK-1 2.3 23:18:13 10° S 23:22:14 57° ESE 23:26:16 10° NNE
Okean-O 3.1 23:18:43 10° SE 23:22:50 39° ENE 23:26:56 10° N
FALCON 9 DEB 3.4 23:24:12 10° SSW 23:27:02 34° SE 23:28:45 19° ENE
COSMOS 2487 2.8 23:28:52 10° SSW 23:32:13 63° WNW 23:35:33 10° N
Cosmos 2322 Rocket 3.0 23:27:51 10° N 23:32:49 31° ENE 23:35:45 20° ESE
HJ-1C 3.7 23:31:08 18° SE 23:33:13 41° ENE 23:36:19 10° N
ARGOS 3.1 23:31:19 10° SSE 23:36:39 63° ENE 23:41:57 10° N
Cosmos 2058 Rocket 3.6 23:35:59 10° SSE 23:39:57 35° E 23:43:55 10° NNE
Cosmos 614 Rocket 4.5 23:40:11 10° SSE 23:44:53 35° E 23:49:31 10° NE
CSL-04 Rocket 3.9 23:43:50 19° SE 23:47:17 45° ENE 23:52:17 10° N
USA 276 4.3 23:48:01 10° WNW 23:50:33 22° SW 23:52:26 14° S
Cosmos 1455 2.4 23:54:41 47° ENE 23:54:41 47° ENE 23:57:55 10° NNE
Centaur AC-64 3.8 23:39:23 10° WNW 23:55:09 50° N 23:57:08 30° ENE
ASC 2 Rocket 4.0 23:51:40 10° SW 23:54:51 27° SSE 23:54:51 27° SSE
